Weather History for Chillicothe, MO

Change the Weather History Date:

Thursday, December 20, 2012

  Actual Average (KIRK) Record (KIRK)
Temperature  
Mean Temperature 29 °F 28 °F  
Max Temperature 37 °F 36 °F 65 °F (1941)
Min Temperature 19 °F 19 °F -13 °F (1983)
Degree Days  
Heating Degree Days 36 38  
Month to date heating degree days 701  
Since 1 July heating degree days 1922  
Cooling Degree Days 0 0  
Month to date cooling degree days 0  
Year to date cooling degree days 939  
Moisture  
Dew Point 24 °F    
Average Humidity 84    
Maximum Humidity 97    
Minimum Humidity 65    
Precipitation  
Precipitation 0.64 in 0.06 in 1.10 in (2006)
Month to date precipitation 1.22  
Year to date precipitation 38.78  
Sea Level Pressure  
Sea Level Pressure 29.81 in    
Wind  
Wind Speed 15 mph (NW)    
Max Wind Speed 26 mph    
Max Gust Speed 43 mph    
T = Trace of Precipitation, MM = Missing Value Source: NWS Daily Summary

Daily Weather History Graph

Daily Weather History Graph

Search for Another Location

Airport:

Trip Planner

Search our weather history database for the weather conditions in past years. The results will help you decide how hot, cold, wet, or windy it might be!

Date:

Astronomy

Dec. 20, 2012 Rise Set
Actual Time 7:31 AM CST 4:52 PM CST
Civil Twilight 7:01 AM CST 5:23 PM CST
Nautical Twilight 6:27 AM CST 5:57 PM CST
Astronomical Twilight 5:54 AM CST 6:30 PM CST
Moon 12:10 PM CST (12/20) 12:20 AM CST (12/20)
Length of Visible Light 10h 21m
Length of Day
9h 20m
First Quarter, 55% of the Moon is Illuminated
Dec 20
First Quarter
Dec 28
Full
Jan 4
Last Quarter
Jan 11
New
Jan 18
First Quarter

Hourly Weather History & Observations

Time (CST) Temp. Windchill Dew Point Humidity Pressure Visibility Wind Dir Wind Speed Gust Speed Precip Events Conditions
12:52 AM 37.9 °F 30.5 °F 37.0 °F 97% 29.47 in - North 11.5 mph 19.6 mph N/A   Unknown
1:52 AM 37.0 °F 29.8 °F 36.0 °F 96% 29.44 in - North 10.4 mph 20.7 mph N/A   Unknown
2:52 AM 37.0 °F 28.9 °F 36.0 °F 96% 29.41 in - North 12.7 mph 19.6 mph N/A   Unknown
3:52 AM 35.1 °F 24.5 °F 33.1 °F 92% 29.38 in - North 18.4 mph 29.9 mph 0.01 in   Unknown
4:52 AM 34.0 °F 25.5 °F 32.0 °F 92% 29.40 in - NNW 11.5 mph 26.5 mph 0.11 in   Unknown
5:52 AM 33.1 °F 21.5 °F 32.0 °F 96% 29.43 in - NNW 19.6 mph 27.6 mph 0.12 in   Unknown
6:52 AM 32.0 °F 21.6 °F 30.9 °F 96% 29.49 in - NW 15.0 mph 28.8 mph 0.16 in   Unknown
7:52 AM 28.9 °F 16.1 °F 28.0 °F 96% 29.58 in - NNW 19.6 mph 34.5 mph 0.04 in   Unknown
8:52 AM 28.0 °F 15.7 °F 27.0 °F 96% 29.65 in - NW 17.3 mph 36.8 mph 0.06 in   Unknown
9:52 AM 28.0 °F 14.6 °F 26.1 °F 92% 29.71 in - NW 20.7 mph 36.8 mph 0.11 in   Unknown
10:52 AM 27.0 °F 12.8 °F 25.0 °F 92% 29.76 in - NW 21.9 mph 39.1 mph 0.03 in   Unknown
11:52 AM 28.0 °F 15.3 °F 23.0 °F 81% 29.81 in - NW 18.4 mph 41.4 mph N/A   Unknown
12:52 PM 28.0 °F 13.0 °F 21.0 °F 75% 29.85 in - NW 26.5 mph 42.6 mph N/A   Unknown
1:52 PM 27.0 °F 12.5 °F 21.0 °F 78% 29.89 in - NW 23.0 mph 39.1 mph N/A   Unknown
2:52 PM 28.0 °F 15.7 °F 19.9 °F 72% 29.94 in - NW 17.3 mph 35.7 mph N/A   Unknown
3:52 PM 27.0 °F 15.2 °F 19.0 °F 72% 30.00 in - WNW 15.0 mph 27.6 mph N/A   Unknown
4:52 PM 25.0 °F 11.3 °F 18.0 °F 75% 30.04 in - WNW 18.4 mph 28.8 mph N/A   Unknown
5:52 PM 25.0 °F 11.3 °F 17.1 °F 72% 30.08 in - NW 18.4 mph 31.1 mph N/A   Unknown
6:52 PM 24.1 °F 13.1 °F 17.1 °F 75% 30.12 in - WNW 11.5 mph 23.0 mph N/A   Unknown
7:52 PM 23.0 °F 11.7 °F 16.0 °F 74% 30.15 in - WNW 11.5 mph 24.2 mph N/A   Unknown
8:52 PM 21.9 °F 8.7 °F 16.0 °F 78% 30.16 in - WNW 15.0 mph 23.0 mph N/A   Unknown
9:52 PM 21.9 °F 11.0 °F 15.1 °F 75% 30.17 in - NW 10.4 mph 20.7 mph N/A   Unknown
10:52 PM 21.0 °F 9.9 °F 10.9 °F 65% 30.20 in - WNW 10.4 mph - N/A   Unknown
11:52 PM 19.9 °F 9.3 °F 12.9 °F 74% 30.22 in - NW 9.2 mph 18.4 mph N/A   Unknown